Hourly Weather Kaprun

Today, 7 August, Friday

Time Temperature Precipitation Wind Pressure Humidity
00:00 +7°C° 0 mm 0 mps 601 mmHg 95%
01:00 +8°C° 0 mm 1 mps 601 mmHg 95%
02:00 +8°C° 0 mm 1 mps 601 mmHg 95%
03:00 +8°C° 0 mm 1 mps 601 mmHg 95%
04:00 +8°C° 0 mm 1 mps 601 mmHg 94%
05:00 +8°C° 0 mm 0 mps 602 mmHg 92%
06:00 +10°C° 0 mm 0 mps 603 mmHg 89%
07:00 +12°C° 0 mm 0 mps 603 mmHg 86%
08:00 +13°C° 0 mm 0 mps 604 mmHg 77%
09:00 +16°C° 0 mm 1 mps 605 mmHg 68%
10:00 +19°C° 0 mm 1 mps 605 mmHg 59%
11:00 +19°C° 0 mm 1 mps 605 mmHg 56%
12:00 +20°C° 0 mm 1 mps 606 mmHg 53%
13:00 +20°C° 0 mm 2 mps 606 mmHg 50%
14:00 +19°C° 0.1 mm 2 mps 605 mmHg 53%
15:00 +19°C° 0.1 mm 2 mps 605 mmHg 57%
16:00 +19°C° 0.1 mm 2 mps 605 mmHg 61%
17:00 +18°C° 0.3 mm 1 mps 604 mmHg 70%
18:00 +15°C° 0.3 mm 1 mps 604 mmHg 80%
19:00 +12°C° 0.3 mm 0 mps 603 mmHg 89%
20:00 +12°C° 0 mm 1 mps 603 mmHg 90%
21:00 +11°C° 0 mm 1 mps 602 mmHg 90%
22:00 +10°C° 0 mm 1 mps 602 mmHg 91%
23:00 +9°C° 0 mm 1 mps 602 mmHg 91%

Tomorrow, 8 August, Saturday

Time Temperature Precipitation Wind Pressure Humidity
00:00 +9°C° 0 mm 1 mps 602 mmHg 90%
01:00 +9°C° 0 mm 1 mps 602 mmHg 90%
02:00 +8°C° 0 mm 1 mps 602 mmHg 90%
03:00 +8°C° 0 mm 1 mps 601 mmHg 90%
04:00 +8°C° 0 mm 1 mps 601 mmHg 90%
05:00 +10°C° 0 mm 1 mps 602 mmHg 87%
06:00 +10°C° 0 mm 0 mps 603 mmHg 84%
07:00 +12°C° 0 mm 0 mps 604 mmHg 80%
08:00 +14°C° 0 mm 0 mps 605 mmHg 71%
09:00 +18°C° 0 mm 1 mps 605 mmHg 62%
10:00 +20°C° 0 mm 1 mps 606 mmHg 52%
11:00 +21°C° 0 mm 1 mps 606 mmHg 49%
12:00 +21°C° 0 mm 1 mps 606 mmHg 45%
13:00 +22°C° 0 mm 1 mps 606 mmHg 42%
14:00 +21°C° 0 mm 2 mps 606 mmHg 45%
15:00 +20°C° 0 mm 2 mps 606 mmHg 49%
16:00 +20°C° 0 mm 2 mps 605 mmHg 52%
17:00 +18°C° 0.3 mm 2 mps 605 mmHg 64%
18:00 +16°C° 0.3 mm 1 mps 604 mmHg 77%
19:00 +14°C° 0.3 mm 1 mps 603 mmHg 89%
20:00 +13°C° 0 mm 1 mps 603 mmHg 91%
21:00 +11°C° 0 mm 1 mps 602 mmHg 92%
22:00 +10°C° 0 mm 1 mps 602 mmHg 94%
23:00 +10°C° 0 mm 1 mps 602 mmHg 94%

Day after tomorrow, 9 August, Sunday

Time Temperature Precipitation Wind Pressure Humidity
00:00 +9°C° 0 mm 1 mps 601 mmHg 94%
01:00 +9°C° 0 mm 1 mps 601 mmHg 93%
02:00 +9°C° 0 mm 1 mps 601 mmHg 93%
03:00 +8°C° 0 mm 1 mps 601 mmHg 92%
04:00 +8°C° 0 mm 1 mps 600 mmHg 92%
05:00 +9°C° 0 mm 0 mps 601 mmHg 88%
06:00 +10°C° 0 mm 0 mps 602 mmHg 84%
07:00 +12°C° 0 mm 0 mps 603 mmHg 81%
08:00 +14°C° 0 mm 0 mps 603 mmHg 71%
09:00 +18°C° 0 mm 1 mps 604 mmHg 61%
10:00 +20°C° 0 mm 1 mps 605 mmHg 52%
11:00 +21°C° 0 mm 1 mps 605 mmHg 47%
12:00 +21°C° 0 mm 1 mps 605 mmHg 43%
13:00 +22°C° 0 mm 1 mps 605 mmHg 39%
14:00 +21°C° 0 mm 2 mps 605 mmHg 41%
15:00 +20°C° 0 mm 2 mps 604 mmHg 44%
16:00 +20°C° 0 mm 2 mps 604 mmHg 46%
17:00 +18°C° 0.1 mm 2 mps 603 mmHg 59%
18:00 +16°C° 0.1 mm 1 mps 602 mmHg 72%
19:00 +14°C° 0.1 mm 1 mps 602 mmHg 84%
20:00 +13°C° 0 mm 1 mps 601 mmHg 86%
21:00 +11°C° 0 mm 1 mps 601 mmHg 88%
22:00 +10°C° 0 mm 1 mps 600 mmHg 90%
23:00 +10°C° 0 mm 1 mps 600 mmHg 90%

10 August, Monday

Time Temperature Precipitation Wind Pressure Humidity
00:00 +10°C° 0 mm 1 mps 600 mmHg 90%
01:00 +9°C° 0 mm 1 mps 600 mmHg 89%
02:00 +9°C° 0 mm 1 mps 600 mmHg 89%
03:00 +9°C° 0 mm 1 mps 599 mmHg 89%
04:00 +9°C° 0 mm 1 mps 599 mmHg 89%
05:00 +10°C° 0 mm 1 mps 600 mmHg 85%
06:00 +11°C° 0 mm 0 mps 601 mmHg 81%
07:00 +13°C° 0 mm 0 mps 601 mmHg 77%
08:00 +15°C° 0 mm 0 mps 602 mmHg 68%
09:00 +19°C° 0 mm 1 mps 603 mmHg 59%
10:00 +21°C° 0 mm 1 mps 604 mmHg 50%
11:00 +22°C° 0 mm 1 mps 604 mmHg 47%
12:00 +22°C° 0 mm 1 mps 604 mmHg 44%
13:00 +23°C° 0 mm 2 mps 604 mmHg 41%
14:00 +21°C° 0.4 mm 2 mps 604 mmHg 45%
15:00 +22°C° 0.4 mm 1 mps 603 mmHg 49%
16:00 +21°C° 0.4 mm 1 mps 603 mmHg 54%
17:00 +19°C° 0.8 mm 1 mps 602 mmHg 64%
18:00 +16°C° 0.8 mm 1 mps 602 mmHg 75%
19:00 +13°C° 0.8 mm 0 mps 601 mmHg 86%
20:00 +12°C° 0.2 mm 0 mps 601 mmHg 86%
21:00 +12°C° 0.2 mm 1 mps 600 mmHg 87%
22:00 +11°C° 0.2 mm 1 mps 600 mmHg 87%
23:00 +11°C° 0 mm 1 mps 600 mmHg 87%

11 August, Tuesday

Time Temperature Precipitation Wind Pressure Humidity
00:00 +10°C° 0 mm 1 mps 600 mmHg 87%
01:00 +10°C° 0 mm 1 mps 600 mmHg 87%
02:00 +10°C° 0 mm 1 mps 600 mmHg 87%
03:00 +10°C° 0 mm 1 mps 600 mmHg 86%
04:00 +9°C° 0 mm 1 mps 600 mmHg 86%
05:00 +11°C° 0 mm 1 mps 600 mmHg 82%
06:00 +12°C° 0 mm 0 mps 601 mmHg 78%
07:00 +14°C° 0 mm 0 mps 602 mmHg 74%
08:00 +16°C° 0 mm 0 mps 603 mmHg 66%
09:00 +20°C° 0 mm 1 mps 604 mmHg 58%
10:00 +21°C° 0 mm 1 mps 604 mmHg 50%
11:00 +22°C° 0 mm 1 mps 605 mmHg 48%
12:00 +22°C° 0 mm 1 mps 605 mmHg 45%
13:00 +23°C° 0 mm 1 mps 605 mmHg 42%
14:00 +22°C° 0.6 mm 1 mps 604 mmHg 48%
15:00 +21°C° 0.6 mm 1 mps 604 mmHg 53%
16:00 +21°C° 0.6 mm 1 mps 603 mmHg 59%
17:00 +19°C° 1.3 mm 1 mps 603 mmHg 68%
18:00 +16°C° 1.3 mm 1 mps 602 mmHg 78%
19:00 +13°C° 1.3 mm 0 mps 601 mmHg 87%
20:00 +12°C° 0.3 mm 0 mps 601 mmHg 87%
21:00 +12°C° 0.3 mm 0 mps 601 mmHg 86%
22:00 +12°C° 0.3 mm 1 mps 601 mmHg 86%
23:00 +11°C° 0 mm 1 mps 601 mmHg 86%

12 August, Wednesday

Time Temperature Precipitation Wind Pressure Humidity
00:00 +10°C° 0 mm 0 mps 600 mmHg 86%
01:00 +9°C° 0 mm 0 mps 600 mmHg 86%
02:00 +9°C° 0 mm 0 mps 600 mmHg 86%
03:00 +9°C° 0 mm 0 mps 600 mmHg 86%
04:00 +9°C° 0 mm 1 mps 599 mmHg 86%
05:00 +10°C° 0 mm 0 mps 600 mmHg 83%
06:00 +12°C° 0 mm 0 mps 601 mmHg 79%
07:00 +14°C° 0 mm 0 mps 602 mmHg 76%
08:00 +15°C° 0.1 mm 0 mps 602 mmHg 70%
09:00 +19°C° 0.1 mm 1 mps 603 mmHg 63%
10:00 +21°C° 0.1 mm 1 mps 604 mmHg 57%
11:00 +21°C° 0.7 mm 1 mps 604 mmHg 56%
12:00 +22°C° 0.7 mm 1 mps 604 mmHg 54%
13:00 +22°C° 0.7 mm 1 mps 604 mmHg 53%
14:00 +22°C° 1.3 mm 1 mps 603 mmHg 57%
15:00 +21°C° 1.3 mm 1 mps 603 mmHg 61%
16:00 +20°C° 1.3 mm 1 mps 603 mmHg 64%
17:00 +19°C° 1.5 mm 1 mps 602 mmHg 72%
18:00 +16°C° 1.5 mm 1 mps 601 mmHg 80%
19:00 +13°C° 1.5 mm 0 mps 601 mmHg 88%
20:00 +12°C° 0.3 mm 0 mps 600 mmHg 88%
21:00 +12°C° 0.3 mm 1 mps 600 mmHg 88%
22:00 +11°C° 0.3 mm 1 mps 600 mmHg 88%
23:00 +11°C° 0 mm 1 mps 600 mmHg 88%
Show more